Location: Cold Norton
(51.6667°N, 0.6667°E)
Time: 07:01:02
(UTC+00:00)

Cosmos 468 Rocket - Pass Details

Date: 18 November 2025
Orbit: 740 x 774 km, 74.0° (Epoch: 16 December)

Event Time Altitude Azimuth Distance (km) Brightness Sun altitude
Rises 17:39:32 0° 334° (NNW) 3,239 7.4 -14.6°
Reaches altitude 10° 17:41:55 10° 335° (NNW) 2,304 6.6 -15.0°
Maximum altitude 17:47:10 88° 246° (WSW) 763 4.0 -15.8°
Drops below altitude 10° 17:52:19 10° 158° (SSE) 2,265 6.3 -16.6°
Sets 17:54:39 0° 158° (SSE) 3,181 7.1 -16.9°
